Location: Fort Wayne
(41.1310°N, 85.1290°W)
Time: 17:48:38
(UTC-04:00)

Oscar 19 - Visible Passes

Search period start: 28 July 2015 00:00
Search period end: 07 August 2015 00:00
Orbit: 773 x 791 km, 98.5° (Epoch: 28 July)

Date Brightness Start Highest point End Pass type
(mag) Time Alt. Az. Time Alt. Az. Time Alt. Az.
28 Jul 10.9 02:58:29 10° NNE 03:03:35 57° E 03:03:42 57° ESE visible
28 Jul 12.3 04:38:57 10° NNW 04:42:33 19° WNW 04:44:15 16° W visible
29 Jul 12.0 02:27:16 10° NE 02:31:31 29° E 02:31:31 29° E visible
29 Jul 11.5 04:06:25 10° N 04:11:05 34° WNW 04:12:06 31° W visible
30 Jul 12.8 01:56:55 10° ENE 01:59:22 14° E 01:59:22 14° E visible
30 Jul 10.6 03:34:21 10° N 03:39:30 67° WNW 03:39:55 64° WSW visible
31 Jul 10.8 03:02:38 10° NNE 03:07:44 63° E 03:07:44 63° E visible
31 Jul 12.4 04:43:19 10° NNW 04:46:41 17° WNW 04:48:19 15° W visible
01 Aug 11.9 02:31:20 10° NE 02:35:35 31° E 02:35:35 31° E visible
01 Aug 11.6 04:10:40 10° N 04:15:14 32° WNW 04:16:08 30° W visible
02 Aug 12.8 02:00:48 10° NE 02:03:24 16° E 02:03:24 16° E visible
02 Aug 10.7 03:38:33 10° N 03:43:40 61° WNW 03:43:58 60° W visible
03 Aug 10.8 03:06:48 10° NNE 03:11:48 68° E 03:11:48 68° E visible
03 Aug 12.5 04:47:41 10° NNW 04:50:50 16° WNW 04:52:21 14° W visible
04 Aug 11.8 02:35:26 10° NNE 02:39:37 34° E 02:39:37 34° E visible
04 Aug 11.7 04:14:56 10° N 04:19:24 29° WNW 04:20:11 28° W visible
05 Aug 12.7 02:04:44 10° NE 02:07:26 17° E 02:07:26 17° E visible
05 Aug 10.8 03:42:46 10° N 03:47:51 56° WNW 03:48:00 56° W visible
06 Aug 10.7 03:10:58 10° NNE 03:15:49 72° ENE 03:15:49 72° ENE visible
06 Aug 12.6 04:52:05 10° NNW 04:54:58 15° WNW 04:56:23 13° W visible
